PAB260 SBGL-SBRF

Flight info

Callsign PAB260
Flight time 4h 24m
Altitude 23000
Route IMBAP UZ42 KIDEN/N0233F250 UZ42 ANBEX
Aircraft CONI/M-SDFY/C

Departure

Time 2026-04-30 13:15
Airport Rio Galeão – Tom Jobim International Airport (SBGL)

Arrival

Time 2026-04-30 17:39
Airport Recife/Guararapes - Gilberto Freyre International Airport (SBRF)
Time Latitude Longitude Altitude Speed Heading
2026-04-30 12:59 -22.80990 -43.25531 38 ft 0 kts 276°
2026-04-30 13:06 -22.80990 -43.25530 38 ft 1 kts 276°
2026-04-30 13:07 -22.80992 -43.25513 38 ft 3 kts 283°
2026-04-30 13:07 -22.81000 -43.25493 38 ft 3 kts 310°
2026-04-30 13:07 -22.81015 -43.25486 38 ft 2 kts
2026-04-30 13:07 -22.81022 -43.25487 38 ft 0 kts
2026-04-30 13:08 -22.81020 -43.25486 38 ft 2 kts
2026-04-30 13:08 -22.80969 -43.25482 38 ft 9 kts 353°
2026-04-30 13:09 -22.80920 -43.25518 38 ft 10 kts 302°
2026-04-30 13:09 -22.80869 -43.25590 38 ft 15 kts 343°
2026-04-30 13:09 -22.80774 -43.25551 38 ft 15 kts 36°
2026-04-30 13:09 -22.80696 -43.25491 38 ft 12 kts 36°
2026-04-30 13:10 -22.80620 -43.25459 38 ft 11 kts 346°
2026-04-30 13:10 -22.80563 -43.25508 38 ft 11 kts 314°
2026-04-30 13:10 -22.80501 -43.25564 38 ft 13 kts 324°
2026-04-30 13:10 -22.80437 -43.25610 38 ft 11 kts 330°
2026-04-30 13:11 -22.80364 -43.25608 38 ft 12 kts 27°
2026-04-30 13:11 -22.80336 -43.25589 38 ft 0 kts 36°
2026-04-30 13:12 -22.80335 -43.25589 38 ft 1 kts 36°
2026-04-30 13:13 -22.80227 -43.25499 38 ft 11 kts 38°
2026-04-30 13:13 -22.80193 -43.25470 38 ft 8 kts 38°
2026-04-30 13:13 -22.80167 -43.25430 38 ft 0 kts 71°
2026-04-30 13:14 -22.80145 -43.25355 38 ft 40 kts 75°
2026-04-30 13:14 -22.80012 -43.24836 39 ft 98 kts 75°
2026-04-30 13:14 -22.79554 -43.23082 349 ft 130 kts 72°
2026-04-30 13:15 -22.79315 -43.22170 715 ft 128 kts 75°
2026-04-30 13:15 -22.78917 -43.20139 1129 ft 156 kts 78°
2026-04-30 13:15 -22.78727 -43.18944 1381 ft 160 kts 82°
2026-04-30 13:16 -22.78638 -43.17720 1574 ft 166 kts 85°
2026-04-30 13:16 -22.78512 -43.16481 1791 ft 168 kts 81°
2026-04-30 13:16 -22.78308 -43.15235 2041 ft 168 kts 78°
2026-04-30 13:17 -22.77766 -43.12771 2543 ft 169 kts 75°
2026-04-30 13:17 -22.77462 -43.11542 2794 ft 169 kts 74°
2026-04-30 13:17 -22.76833 -43.09092 3293 ft 169 kts 74°
2026-04-30 13:18 -22.76514 -43.07867 3543 ft 169 kts 74°
2026-04-30 13:18 -22.75874 -43.05416 4043 ft 170 kts 74°
2026-04-30 13:18 -22.75551 -43.04186 4306 ft 171 kts 73°
2026-04-30 13:19 -22.75008 -43.03046 4555 ft 173 kts 46°
2026-04-30 13:19 -22.73986 -43.02371 4814 ft 175 kts 17°
2026-04-30 13:19 -22.72794 -43.02078 5070 ft 177 kts
2026-04-30 13:19 -22.71574 -43.01855 5317 ft 179 kts
2026-04-30 13:20 -22.70357 -43.01613 5558 ft 177 kts 10°
2026-04-30 13:20 -22.69157 -43.01346 5806 ft 175 kts 11°
2026-04-30 13:20 -22.67974 -43.01062 6053 ft 173 kts 12°
2026-04-30 13:20 -22.66804 -43.00772 6301 ft 172 kts 12°
2026-04-30 13:21 -22.65645 -43.00483 6548 ft 170 kts 12°
2026-04-30 13:21 -22.64494 -43.00196 6797 ft 170 kts 12°
2026-04-30 13:21 -22.63335 -42.99908 7048 ft 171 kts 12°
2026-04-30 13:22 -22.61004 -42.99329 7548 ft 172 kts 12°
2026-04-30 13:22 -22.59836 -42.99039 7798 ft 172 kts 12°
2026-04-30 13:22 -22.57507 -42.98461 8285 ft 172 kts 12°
2026-04-30 13:23 -22.56315 -42.98167 8422 ft 179 kts 12°
2026-04-30 13:23 -22.53819 -42.97549 8687 ft 191 kts 12°
2026-04-30 13:24 -22.51174 -42.96895 8939 ft 198 kts 12°
2026-04-30 13:24 -22.48456 -42.96222 9193 ft 202 kts 12°
2026-04-30 13:25 -22.45692 -42.95537 9445 ft 205 kts 12°
2026-04-30 13:25 -22.42894 -42.94845 9697 ft 208 kts 12°
2026-04-30 13:26 -22.38614 -42.93787 10079 ft 213 kts 12°
2026-04-30 13:26 -22.35715 -42.93070 10327 ft 215 kts 11°
2026-04-30 13:27 -22.32778 -42.92537 10578 ft 214 kts 359°
2026-04-30 13:28 -22.28350 -42.92939 10954 ft 213 kts 350°
2026-04-30 13:28 -22.25399 -42.93398 11220 ft 216 kts 349°
2026-04-30 13:28 -22.23907 -42.93641 11333 ft 217 kts 349°
2026-04-30 13:29 -22.20942 -42.94129 11581 ft 214 kts 349°
2026-04-30 13:29 -22.18007 -42.94614 11829 ft 213 kts 349°
2026-04-30 13:30 -22.13810 -42.93359 12203 ft 215 kts 27°
2026-04-30 13:31 -22.11241 -42.91698 12451 ft 215 kts 30°
2026-04-30 13:31 -22.07457 -42.89116 12825 ft 214 kts 30°
2026-04-30 13:32 -22.04956 -42.87392 13074 ft 213 kts 30°
2026-04-30 13:32 -22.02470 -42.85674 13313 ft 212 kts 30°
2026-04-30 13:33 -21.99956 -42.83939 13424 ft 218 kts 30°
2026-04-30 13:33 -21.97410 -42.82177 13672 ft 217 kts 30°
2026-04-30 13:34 -21.96138 -42.81297 13797 ft 217 kts 30°
2026-04-30 13:34 -21.92334 -42.78666 14169 ft 216 kts 30°
2026-04-30 13:35 -21.91069 -42.77792 14294 ft 216 kts 30°
2026-04-30 13:35 -21.88545 -42.76049 14537 ft 215 kts 30°
2026-04-30 13:36 -21.86028 -42.74312 14785 ft 214 kts 29°
2026-04-30 13:36 -21.84775 -42.73447 14907 ft 214 kts 29°
2026-04-30 13:36 -21.82275 -42.71722 15155 ft 213 kts 29°
2026-04-30 13:37 -21.81030 -42.70864 15279 ft 212 kts 29°
2026-04-30 13:37 -21.78551 -42.69154 15525 ft 211 kts 28°
2026-04-30 13:38 -21.76089 -42.67457 15772 ft 209 kts 28°
2026-04-30 13:38 -21.74863 -42.66612 15893 ft 209 kts 28°
2026-04-30 13:38 -21.72429 -42.64936 16141 ft 207 kts 28°
2026-04-30 13:39 -21.70034 -42.63287 16387 ft 205 kts 28°
2026-04-30 13:39 -21.67647 -42.61644 16635 ft 203 kts 28°
2026-04-30 13:40 -21.66463 -42.60830 16758 ft 202 kts 28°
2026-04-30 13:40 -21.65284 -42.60020 16882 ft 200 kts 27°
2026-04-30 13:40 -21.64105 -42.59230 17006 ft 199 kts 25°
2026-04-30 13:40 -21.62911 -42.58491 17127 ft 199 kts 24°
2026-04-30 13:41 -21.61692 -42.57763 17254 ft 202 kts 24°
2026-04-30 13:41 -21.60452 -42.57035 17382 ft 205 kts 23°
2026-04-30 13:41 -21.59194 -42.56301 17510 ft 207 kts 23°
2026-04-30 13:41 -21.57924 -42.55565 17635 ft 209 kts 23°
2026-04-30 13:42 -21.56641 -42.54821 17755 ft 210 kts 23°
2026-04-30 13:42 -21.55351 -42.54075 17881 ft 211 kts 23°
2026-04-30 13:42 -21.52754 -42.52575 18127 ft 213 kts 23°
2026-04-30 13:43 -21.51450 -42.51822 18252 ft 213 kts 23°
2026-04-30 13:43 -21.50145 -42.51069 18377 ft 213 kts 23°
2026-04-30 13:43 -21.48839 -42.50316 18501 ft 213 kts 23°
2026-04-30 13:43 -21.47532 -42.49562 18626 ft 213 kts 23°
2026-04-30 13:44 -21.46226 -42.48810 18746 ft 213 kts 23°
2026-04-30 13:44 -21.44918 -42.48056 18870 ft 213 kts 23°
2026-04-30 13:44 -21.43612 -42.47304 18994 ft 213 kts 23°
2026-04-30 13:44 -21.42311 -42.46555 19115 ft 212 kts 23°
2026-04-30 13:45 -21.39728 -42.45068 19358 ft 212 kts 22°
2026-04-30 13:45 -21.38431 -42.44322 19479 ft 212 kts 22°
2026-04-30 13:45 -21.37128 -42.43573 19594 ft 213 kts 22°
2026-04-30 13:46 -21.35812 -42.42818 19679 ft 216 kts 23°
2026-04-30 13:46 -21.34481 -42.42054 19757 ft 218 kts 23°
2026-04-30 13:46 -21.33118 -42.41272 19835 ft 220 kts 23°
2026-04-30 13:46 -21.31780 -42.40503 19911 ft 222 kts 23°
2026-04-30 13:47 -21.30416 -42.39720 19988 ft 223 kts 23°
2026-04-30 13:47 -21.29045 -42.38932 20064 ft 224 kts 23°
2026-04-30 13:47 -21.27666 -42.38140 20140 ft 225 kts 23°
2026-04-30 13:47 -21.26282 -42.37345 20215 ft 226 kts 23°
2026-04-30 13:48 -21.24895 -42.36548 20291 ft 227 kts 23°
2026-04-30 13:48 -21.23502 -42.35749 20366 ft 227 kts 23°
2026-04-30 13:48 -21.22107 -42.34948 20442 ft 228 kts 23°
2026-04-30 13:48 -21.20712 -42.34147 20517 ft 228 kts 23°
2026-04-30 13:49 -21.19313 -42.33345 20593 ft 228 kts 23°
2026-04-30 13:49 -21.17914 -42.32542 20665 ft 228 kts 23°
2026-04-30 13:49 -21.16512 -42.31738 20736 ft 229 kts 23°
2026-04-30 13:49 -21.15111 -42.30935 20810 ft 229 kts 23°
2026-04-30 13:50 -21.13708 -42.30131 20885 ft 228 kts 23°
2026-04-30 13:50 -21.10905 -42.28525 21027 ft 229 kts 23°
2026-04-30 13:50 -21.09503 -42.27722 21101 ft 228 kts 23°
2026-04-30 13:51 -21.08104 -42.26921 21177 ft 228 kts 23°
2026-04-30 13:51 -21.06705 -42.26120 21251 ft 228 kts 23°
2026-04-30 13:51 -21.05305 -42.25319 21319 ft 228 kts 23°
2026-04-30 13:51 -21.03903 -42.24516 21392 ft 229 kts 23°
2026-04-30 13:52 -21.02500 -42.23714 21468 ft 229 kts 23°
2026-04-30 13:52 -21.01097 -42.22911 21542 ft 229 kts 24°
2026-04-30 13:52 -20.99695 -42.22109 21619 ft 229 kts 24°
2026-04-30 13:52 -20.98312 -42.21319 21694 ft 228 kts 24°
2026-04-30 13:53 -20.96892 -42.20507 21770 ft 228 kts 24°
2026-04-30 13:53 -20.95511 -42.19718 21844 ft 228 kts 24°
2026-04-30 13:53 -20.94112 -42.18918 21918 ft 228 kts 24°
2026-04-30 13:53 -20.92716 -42.18120 21993 ft 228 kts 24°
2026-04-30 13:54 -20.91321 -42.17323 22068 ft 227 kts 24°
2026-04-30 13:54 -20.89927 -42.16527 22142 ft 227 kts 24°
2026-04-30 13:54 -20.88534 -42.15733 22216 ft 227 kts 24°
2026-04-30 13:54 -20.87145 -42.14940 22292 ft 226 kts 24°
2026-04-30 13:55 -20.85755 -42.14146 22366 ft 226 kts 24°
2026-04-30 13:55 -20.84369 -42.13356 22440 ft 226 kts 24°
2026-04-30 13:55 -20.82984 -42.12566 22515 ft 225 kts 24°
2026-04-30 13:55 -20.81603 -42.11778 22589 ft 225 kts 24°
2026-04-30 13:56 -20.80225 -42.10992 22663 ft 224 kts 24°
2026-04-30 13:56 -20.78848 -42.10208 22737 ft 224 kts 24°
2026-04-30 13:56 -20.77473 -42.09424 22812 ft 224 kts 24°
2026-04-30 13:56 -20.76102 -42.08642 22886 ft 223 kts 24°
2026-04-30 13:57 -20.74734 -42.07863 22960 ft 223 kts 24°
2026-04-30 13:57 -20.73367 -42.07084 23035 ft 222 kts 24°
2026-04-30 13:57 -20.72002 -42.06307 23109 ft 222 kts 24°
2026-04-30 13:57 -20.70639 -42.05531 23158 ft 223 kts 24°
2026-04-30 13:58 -20.69264 -42.04749 23171 ft 225 kts 24°
2026-04-30 13:58 -20.66468 -42.03160 23174 ft 230 kts 24°
2026-04-30 13:58 -20.65051 -42.02353 23173 ft 232 kts 24°
2026-04-30 13:59 -20.63623 -42.01535 23175 ft 233 kts 25°
2026-04-30 13:59 -20.62194 -42.00701 23172 ft 235 kts 25°
2026-04-30 13:59 -20.60778 -41.99865 23171 ft 237 kts 25°
2026-04-30 13:59 -20.59334 -41.99009 23171 ft 238 kts 25°
2026-04-30 14:00 -20.57882 -41.98145 23170 ft 240 kts 26°
2026-04-30 14:00 -20.54950 -41.96398 23170 ft 243 kts 26°
2026-04-30 14:00 -20.53470 -41.95516 23170 ft 244 kts 26°
2026-04-30 14:01 -20.51982 -41.94629 23167 ft 246 kts 26°
2026-04-30 14:01 -20.50484 -41.93735 23158 ft 248 kts 26°
2026-04-30 14:01 -20.48977 -41.92836 23163 ft 249 kts 26°
2026-04-30 14:01 -20.47466 -41.91935 23167 ft 250 kts 26°
2026-04-30 14:02 -20.45943 -41.91027 23168 ft 251 kts 26°
2026-04-30 14:02 -20.44413 -41.90115 23168 ft 253 kts 26°
2026-04-30 14:02 -20.43395 -41.89508 23167 ft 254 kts 26°
2026-04-30 14:02 -20.41845 -41.88585 23168 ft 256 kts 26°
2026-04-30 14:03 -20.40287 -41.87657 23168 ft 258 kts 26°
2026-04-30 14:03 -20.38717 -41.86721 23168 ft 259 kts 26°
2026-04-30 14:03 -20.37137 -41.85781 23167 ft 261 kts 26°
2026-04-30 14:03 -20.35547 -41.84834 23167 ft 263 kts 26°
2026-04-30 14:04 -20.33949 -41.83882 23166 ft 264 kts 26°
2026-04-30 14:04 -20.32340 -41.82925 23166 ft 266 kts 26°
2026-04-30 14:04 -20.30724 -41.81963 23166 ft 267 kts 26°
2026-04-30 14:04 -20.29099 -41.80997 23166 ft 268 kts 26°
2026-04-30 14:05 -20.27464 -41.80024 23166 ft 270 kts 26°
2026-04-30 14:05 -20.25823 -41.79049 23171 ft 271 kts 26°
2026-04-30 14:05 -20.24175 -41.78069 23174 ft 272 kts 26°
2026-04-30 14:05 -20.22519 -41.77085 23174 ft 273 kts 26°
2026-04-30 14:06 -20.20856 -41.76097 23167 ft 275 kts 26°
2026-04-30 14:06 -20.17499 -41.74103 23146 ft 278 kts 26°
2026-04-30 14:07 -20.14111 -41.72091 23145 ft 280 kts 26°
2026-04-30 14:07 -20.12409 -41.71081 23145 ft 281 kts 26°
2026-04-30 14:07 -20.10701 -41.70068 23145 ft 282 kts 26°
2026-04-30 14:08 -20.07267 -41.68033 23146 ft 283 kts 26°
2026-04-30 14:08 -20.05540 -41.67009 23146 ft 284 kts 26°
2026-04-30 14:08 -20.02099 -41.64970 23145 ft 286 kts 26°
2026-04-30 14:09 -20.00360 -41.63940 23145 ft 287 kts 26°
2026-04-30 14:09 -19.98614 -41.62907 23146 ft 287 kts 27°
2026-04-30 14:09 -19.95113 -41.60834 23145 ft 289 kts 27°
2026-04-30 14:10 -19.93355 -41.59794 23145 ft 289 kts 27°
2026-04-30 14:10 -19.91593 -41.58752 23145 ft 290 kts 27°
2026-04-30 14:10 -19.89829 -41.57708 23145 ft 291 kts 27°
2026-04-30 14:10 -19.88059 -41.56662 23145 ft 291 kts 27°
2026-04-30 14:11 -19.86288 -41.55614 23145 ft 292 kts 27°
2026-04-30 14:11 -19.84514 -41.54565 23155 ft 292 kts 27°
2026-04-30 14:11 -19.82737 -41.53516 23158 ft 292 kts 27°
2026-04-30 14:11 -19.80958 -41.52465 23159 ft 293 kts 27°
2026-04-30 14:12 -19.79174 -41.51412 23159 ft 293 kts 27°
2026-04-30 14:12 -19.77390 -41.50360 23159 ft 294 kts 27°
2026-04-30 14:12 -19.75603 -41.49305 23159 ft 294 kts 27°
2026-04-30 14:12 -19.73814 -41.48250 23158 ft 294 kts 27°
2026-04-30 14:13 -19.72024 -41.47194 23158 ft 294 kts 27°
2026-04-30 14:13 -19.70234 -41.46138 23158 ft 295 kts 27°
2026-04-30 14:13 -19.68442 -41.45081 23157 ft 295 kts 27°
2026-04-30 14:13 -19.66650 -41.44026 23157 ft 295 kts 27°
2026-04-30 14:14 -19.64859 -41.42971 23157 ft 295 kts 27°
2026-04-30 14:14 -19.63065 -41.41915 23156 ft 295 kts 27°
2026-04-30 14:14 -19.61270 -41.40858 23157 ft 295 kts 27°
2026-04-30 14:14 -19.59476 -41.39801 23157 ft 295 kts 27°
2026-04-30 14:15 -19.57682 -41.38746 23157 ft 295 kts 27°
2026-04-30 14:15 -19.55884 -41.37688 23153 ft 295 kts 27°
2026-04-30 14:15 -19.54114 -41.36646 23155 ft 295 kts 27°
2026-04-30 14:15 -19.52294 -41.35576 23156 ft 295 kts 27°
2026-04-30 14:16 -19.50499 -41.34520 23156 ft 295 kts 27°
2026-04-30 14:16 -19.48703 -41.33464 23148 ft 295 kts 27°
2026-04-30 14:16 -19.46905 -41.32407 23142 ft 296 kts 27°
2026-04-30 14:16 -19.45132 -41.31365 23135 ft 296 kts 27°
2026-04-30 14:17 -19.43332 -41.30308 23133 ft 296 kts 27°
2026-04-30 14:17 -19.41531 -41.29250 23132 ft 296 kts 27°
2026-04-30 14:17 -19.39733 -41.28194 23132 ft 296 kts 27°
2026-04-30 14:17 -19.37935 -41.27139 23133 ft 295 kts 27°
2026-04-30 14:18 -19.36137 -41.26085 23133 ft 295 kts 27°
2026-04-30 14:18 -19.34342 -41.25032 23132 ft 295 kts 27°
2026-04-30 14:18 -19.30747 -41.22926 23133 ft 295 kts 27°
2026-04-30 14:19 -19.27153 -41.20822 23134 ft 295 kts 27°
2026-04-30 14:19 -19.25360 -41.19772 23134 ft 295 kts 27°
2026-04-30 14:19 -19.23564 -41.18721 23135 ft 295 kts 27°
2026-04-30 14:20 -19.21769 -41.17670 23134 ft 295 kts 27°
2026-04-30 14:20 -19.19976 -41.16622 23134 ft 295 kts 28°
2026-04-30 14:20 -19.16389 -41.14524 23133 ft 295 kts 28°
2026-04-30 14:21 -19.14592 -41.13473 23132 ft 295 kts 28°
2026-04-30 14:21 -19.12798 -41.12425 23132 ft 295 kts 28°
2026-04-30 14:21 -19.09210 -41.10328 23133 ft 295 kts 28°
2026-04-30 14:22 -19.07418 -41.09282 23134 ft 294 kts 28°
2026-04-30 14:22 -19.03831 -41.07187 23135 ft 294 kts 28°
2026-04-30 14:22 -19.02039 -41.06141 23133 ft 294 kts 28°
2026-04-30 14:23 -18.98453 -41.04048 23133 ft 294 kts 28°
2026-04-30 14:23 -18.94871 -41.01958 23133 ft 294 kts 28°
2026-04-30 14:24 -18.91313 -40.99883 23133 ft 294 kts 28°
2026-04-30 14:24 -18.89524 -40.98840 23134 ft 294 kts 28°
2026-04-30 14:25 -18.85944 -40.96754 23134 ft 294 kts 28°
2026-04-30 14:25 -18.82367 -40.94670 23134 ft 294 kts 28°
2026-04-30 14:26 -18.78791 -40.92588 23134 ft 293 kts 28°
2026-04-30 14:26 -18.77005 -40.91548 23133 ft 293 kts 28°
2026-04-30 14:26 -18.73430 -40.89468 23133 ft 293 kts 28°
2026-04-30 14:27 -18.71644 -40.88429 23133 ft 293 kts 28°
2026-04-30 14:27 -18.69857 -40.87390 23133 ft 293 kts 28°
2026-04-30 14:27 -18.68072 -40.86352 23133 ft 293 kts 28°
2026-04-30 14:28 -18.64501 -40.84277 23134 ft 293 kts 28°
2026-04-30 14:28 -18.62717 -40.83241 23134 ft 293 kts 28°
2026-04-30 14:28 -18.60932 -40.82204 23135 ft 293 kts 28°
2026-04-30 14:28 -18.59149 -40.81168 23135 ft 293 kts 28°
2026-04-30 14:29 -18.55580 -40.79097 23134 ft 293 kts 28°
2026-04-30 14:29 -18.52615 -40.77376 23135 ft 293 kts 28°
2026-04-30 14:30 -18.46689 -40.73940 23133 ft 293 kts 28°
2026-04-30 14:31 -18.43123 -40.71873 23133 ft 292 kts 28°
2026-04-30 14:31 -18.39559 -40.69811 23138 ft 292 kts 28°
2026-04-30 14:31 -18.37775 -40.68779 23137 ft 292 kts 28°
2026-04-30 14:32 -18.34211 -40.66717 23134 ft 292 kts 28°
2026-04-30 14:32 -18.32428 -40.65686 23133 ft 292 kts 28°
2026-04-30 14:32 -18.30646 -40.64657 23133 ft 292 kts 28°
2026-04-30 14:33 -18.28864 -40.63627 23133 ft 292 kts 28°
2026-04-30 14:33 -18.25304 -40.61570 23133 ft 292 kts 28°
2026-04-30 14:33 -18.23526 -40.60543 23133 ft 292 kts 28°
2026-04-30 14:34 -18.21747 -40.59516 23133 ft 292 kts 28°
2026-04-30 14:34 -18.19969 -40.58489 23133 ft 291 kts 28°
2026-04-30 14:34 -18.18192 -40.57464 23132 ft 291 kts 28°
2026-04-30 14:34 -18.16416 -40.56439 23133 ft 291 kts 28°
2026-04-30 14:35 -18.13438 -40.54721 23132 ft 291 kts 28°
2026-04-30 14:35 -18.11086 -40.53365 23133 ft 291 kts 28°
2026-04-30 14:35 -18.09311 -40.52342 23133 ft 291 kts 28°
2026-04-30 14:36 -18.07533 -40.51317 23133 ft 291 kts 28°
2026-04-30 14:36 -18.05758 -40.50295 23129 ft 291 kts 28°
2026-04-30 14:36 -18.03981 -40.49271 23125 ft 291 kts 28°
2026-04-30 14:36 -18.02203 -40.48247 23124 ft 291 kts 28°
2026-04-30 14:37 -18.00427 -40.47224 23123 ft 291 kts 28°
2026-04-30 14:37 -17.98649 -40.46201 23122 ft 291 kts 29°
2026-04-30 14:37 -17.96872 -40.45179 23121 ft 291 kts 29°
2026-04-30 14:37 -17.95098 -40.44158 23121 ft 291 kts 29°
2026-04-30 14:38 -17.93323 -40.43136 23121 ft 291 kts 29°
2026-04-30 14:38 -17.91550 -40.42117 23121 ft 291 kts 29°
2026-04-30 14:38 -17.89778 -40.41097 23120 ft 291 kts 29°
2026-04-30 14:38 -17.88006 -40.40079 23120 ft 290 kts 29°
2026-04-30 14:39 -17.86235 -40.39060 23120 ft 290 kts 29°
2026-04-30 14:39 -17.84460 -40.38041 23120 ft 290 kts 29°
2026-04-30 14:39 -17.82690 -40.37024 23120 ft 290 kts 29°
2026-04-30 14:40 -17.79138 -40.34999 23118 ft 290 kts 28°
2026-04-30 14:40 -17.77356 -40.34000 23118 ft 290 kts 28°
2026-04-30 14:40 -17.75572 -40.33007 23118 ft 290 kts 28°
2026-04-30 14:40 -17.73785 -40.32015 23118 ft 290 kts 28°
2026-04-30 14:41 -17.72001 -40.31027 23118 ft 290 kts 28°
2026-04-30 14:41 -17.70213 -40.30039 23117 ft 290 kts 28°
2026-04-30 14:41 -17.68427 -40.29052 23117 ft 290 kts 28°
2026-04-30 14:41 -17.66641 -40.28066 23116 ft 290 kts 28°
2026-04-30 14:42 -17.64853 -40.27080 23115 ft 290 kts 28°
2026-04-30 14:42 -17.63066 -40.26095 23114 ft 290 kts 28°
2026-04-30 14:42 -17.61278 -40.25109 23109 ft 290 kts 28°
2026-04-30 14:42 -17.59489 -40.24124 23106 ft 290 kts 28°
2026-04-30 14:43 -17.57699 -40.23138 23104 ft 290 kts 28°
2026-04-30 14:43 -17.55913 -40.22154 23104 ft 290 kts 28°
2026-04-30 14:43 -17.54123 -40.21169 23104 ft 290 kts 28°
2026-04-30 14:43 -17.52336 -40.20186 23104 ft 290 kts 28°
2026-04-30 14:44 -17.50547 -40.19202 23143 ft 291 kts 28°
2026-04-30 14:44 -17.48715 -40.18188 23110 ft 305 kts 28°
2026-04-30 14:44 -17.46831 -40.17150 23014 ft 305 kts 28°
2026-04-30 14:44 -17.44992 -40.16139 23087 ft 300 kts 28°
2026-04-30 14:45 -17.43149 -40.15135 23118 ft 297 kts 28°
2026-04-30 14:45 -17.41322 -40.14136 23110 ft 296 kts 28°
2026-04-30 14:45 -17.39501 -40.13134 23099 ft 295 kts 28°
2026-04-30 14:45 -17.37685 -40.12135 23082 ft 295 kts 28°
2026-04-30 14:46 -17.35874 -40.11138 23085 ft 294 kts 28°
2026-04-30 14:46 -17.34068 -40.10146 23094 ft 293 kts 28°
2026-04-30 14:46 -17.32267 -40.09157 23097 ft 292 kts 28°
2026-04-30 14:46 -17.31075 -40.08504 23100 ft 292 kts 28°
2026-04-30 14:47 -17.28676 -40.07187 23099 ft 291 kts 28°
2026-04-30 14:47 -17.26879 -40.06200 23099 ft 291 kts 28°
2026-04-30 14:47 -17.25090 -40.05218 23099 ft 291 kts 28°
2026-04-30 14:47 -17.23294 -40.04234 23099 ft 291 kts 28°
2026-04-30 14:48 -17.21504 -40.03253 23099 ft 290 kts 28°
2026-04-30 14:48 -17.19715 -40.02273 23099 ft 290 kts 28°
2026-04-30 14:48 -17.17926 -40.01294 23098 ft 290 kts 28°
2026-04-30 14:48 -17.16142 -40.00317 23098 ft 290 kts 28°
2026-04-30 14:49 -17.14354 -39.99338 23097 ft 290 kts 28°
2026-04-30 14:49 -17.12571 -39.98362 23097 ft 290 kts 28°
2026-04-30 14:49 -17.11388 -39.97715 23097 ft 289 kts 28°
2026-04-30 14:49 -17.09001 -39.96408 23095 ft 289 kts 28°
2026-04-30 14:50 -17.06038 -39.94786 23095 ft 289 kts 29°
2026-04-30 14:50 -17.04259 -39.93813 23095 ft 289 kts 29°
2026-04-30 14:51 -17.00695 -39.91863 23094 ft 289 kts 29°
2026-04-30 14:51 -16.98913 -39.90890 23094 ft 289 kts 29°
2026-04-30 14:51 -16.95351 -39.88945 23093 ft 289 kts 29°
2026-04-30 14:52 -16.93568 -39.87972 23092 ft 289 kts 29°
2026-04-30 14:52 -16.90006 -39.86028 23092 ft 289 kts 29°
2026-04-30 14:52 -16.88225 -39.85056 23091 ft 289 kts 29°
2026-04-30 14:53 -16.84660 -39.83111 23091 ft 289 kts 29°
2026-04-30 14:53 -16.82879 -39.82140 23090 ft 289 kts 29°
2026-04-30 14:54 -16.79320 -39.80200 23090 ft 289 kts 29°
2026-04-30 14:54 -16.75760 -39.78260 23090 ft 289 kts 29°
2026-04-30 14:55 -16.72196 -39.76319 23089 ft 289 kts 29°
2026-04-30 14:55 -16.70415 -39.75349 23089 ft 289 kts 29°
2026-04-30 14:55 -16.66852 -39.73410 23088 ft 289 kts 29°
2026-04-30 14:56 -16.63293 -39.71473 23088 ft 288 kts 29°
2026-04-30 14:56 -16.59736 -39.69539 23088 ft 288 kts 29°
2026-04-30 14:57 -16.57956 -39.68571 23087 ft 288 kts 29°
2026-04-30 14:57 -16.54423 -39.66651 23087 ft 288 kts 29°
2026-04-30 14:58 -16.50843 -39.64706 23086 ft 288 kts 29°
2026-04-30 14:58 -16.49087 -39.63752 23087 ft 288 kts 29°
2026-04-30 14:58 -16.45531 -39.61820 23087 ft 288 kts 29°
2026-04-30 14:59 -16.41972 -39.59889 23086 ft 288 kts 29°
2026-04-30 15:00 -16.36631 -39.56992 23087 ft 288 kts 29°
2026-04-30 15:00 -16.33071 -39.55062 23087 ft 289 kts 29°
2026-04-30 15:01 -16.29510 -39.53135 23089 ft 288 kts 29°
2026-04-30 15:01 -16.27731 -39.52171 23085 ft 288 kts 29°
2026-04-30 15:01 -16.24171 -39.50242 23085 ft 288 kts 29°
2026-04-30 15:02 -16.22393 -39.49279 23085 ft 288 kts 30°
2026-04-30 15:02 -16.20615 -39.48317 23085 ft 288 kts 30°
2026-04-30 15:03 -16.15281 -39.45430 23085 ft 288 kts 30°
2026-04-30 15:03 -16.11725 -39.43506 23085 ft 288 kts 29°
2026-04-30 15:04 -16.08170 -39.41584 23087 ft 288 kts 30°
2026-04-30 15:04 -16.02836 -39.38701 23087 ft 288 kts 29°
2026-04-30 15:05 -15.97502 -39.35821 23087 ft 288 kts 30°
2026-04-30 15:06 -15.93946 -39.33903 23087 ft 288 kts 30°
2026-04-30 15:06 -15.90396 -39.31987 23087 ft 287 kts 30°
2026-04-30 15:07 -15.86873 -39.30082 23087 ft 287 kts 30°
2026-04-30 15:07 -15.83327 -39.28170 23075 ft 287 kts 30°
2026-04-30 15:08 -15.79790 -39.26263 23090 ft 286 kts 30°
2026-04-30 15:08 -15.74496 -39.23414 23083 ft 286 kts 30°
2026-04-30 15:09 -15.70956 -39.21507 23092 ft 286 kts 30°
2026-04-30 15:09 -15.67412 -39.19601 23079 ft 287 kts 30°
2026-04-30 15:10 -15.63872 -39.17700 23086 ft 286 kts 30°
2026-04-30 15:11 -15.56796 -39.13895 23088 ft 287 kts 30°
2026-04-30 15:11 -15.53254 -39.11991 23088 ft 287 kts 30°
2026-04-30 15:12 -15.47934 -39.09134 23087 ft 287 kts 30°
2026-04-30 15:13 -15.44394 -39.07231 23092 ft 287 kts 30°
2026-04-30 15:14 -15.37316 -39.03427 23096 ft 292 kts 30°
2026-04-30 15:14 -15.31601 -39.00343 22919 ft 323 kts 30°
2026-04-30 15:16 -15.22038 -38.95246 23105 ft 300 kts 30°
2026-04-30 15:17 -15.14693 -38.91323 23079 ft 293 kts 30°
2026-04-30 15:18 -15.05721 -38.86525 23084 ft 289 kts 30°
2026-04-30 15:19 -15.00380 -38.83673 23084 ft 287 kts 30°
2026-04-30 17:39 -8.12960 -34.91981 43 ft 0 kts 72°